Home   Weather   Constantine   Past weeks

Flag for Algeria Past Weather in Constantine, Algeria — Yesterday and Last 2 Weeks

Now
52 °F

Passing clouds.


Feels Like: 52 °F
Forecast: 50 / 73 °F
Wind: 2 mph from Southwest

Location: Constantine Airport

Current Time: Apr 30, 2017 at 12:33:58 am

Latest Report: Apr 29, 2017 at 11:30 pm


Visibility: N/A

Pressure: 29.98 "Hg (28.04 "Hg at 557m altitude)

Humidity: 94%

Dew Point: 50 °F

Location of ConstantineLocation

Past Weather in Constantine — Graph

°F

Constantine Temperature Yesterday

Maximum temperature yesterday: 66 °F (at 3:00 pm)
Minimum temperature yesterday: 48 °F (at 12:00 am)
Average temperature yesterday: 56 °F

High & Low Weather Summary for the Past Weeks

 TemperatureHumidityPressure
High88 °F (Apr 27, 2:30 pm)94% (Apr 19, 7:00 am)30.36 "Hg (Apr 19, 7:00 am)
Low34 °F (Apr 22, 5:00 am)10% (Apr 23, 4:00 pm)29.80 "Hg (Apr 27, 4:00 pm)
Average59 °F58%30.05 "Hg
* Reported Apr 14 11:00 pm — Apr 29 11:30 pm, Constantine, Weather by CustomWeather, © 2017

Note: Actual official high and low records may vary slightly from our data, if they occured in-between our weather recording intervals... More about our weather records

Advertising

Constantine Weather History for the Previous 24 Hours

Scroll right to see more
 ConditionsComfort  
Time TempWeatherWind HumidityBarometerVisibility
11:30 pm
Sat, Apr 29
52 °FPassing clouds.2 mph94%29.98 "HgN/A
11:00 pm52 °FPassing clouds.2 mph94%30.01 "HgN/A
10:30 pm55 °FThunderstorms. Passing clouds.3 mph88%29.98 "HgN/A
10:00 pm55 °FThunderstorms. Passing clouds.2 mph88%30.01 "HgN/A
9:30 pm57 °FThunderstorms. Passing clouds.7 mph82%30.04 "Hg4 mi
8:30 pm55 °FPassing clouds.No wind77%29.98 "HgN/A
8:00 pm57 °FPassing clouds.5 mph72%29.95 "HgN/A
7:30 pm57 °FPassing clouds.6 mph72%29.95 "HgN/A
7:00 pm63 °FScattered clouds.6 mph59%29.95 "HgN/A
6:30 pm64 °FPassing clouds.6 mph60%29.95 "HgN/A
6:00 pm64 °FPassing clouds.8 mph56%29.92 "HgN/A
5:30 pm66 °FPassing clouds.8 mph56%29.92 "HgN/A
5:00 pm66 °FPassing clouds.9 mph56%29.92 "HgN/A
4:30 pm66 °FPassing clouds.12 mph56%29.92 "HgN/A
4:00 pm66 °FPassing clouds.13 mph56%29.92 "HgN/A
3:30 pm66 °FPassing clouds.13 mph52%29.95 "HgN/A
3:00 pm66 °FPassing clouds.8 mph56%29.95 "HgN/A
1:30 pm64 °FPassing clouds.7 mph56%29.95 "HgN/A
1:00 pm63 °FPassing clouds.5 mph59%29.95 "HgN/A
12:30 pm61 °FScattered clouds.5 mph63%29.98 "HgN/A
12:00 pm61 °FPartly sunny.3 mph63%29.98 "HgN/A
11:30 am59 °FBroken clouds.2 mph63%29.98 "HgN/A
11:00 am57 °FBroken clouds.2 mph67%30.01 "HgN/A
10:30 am55 °FBroken clouds.1 mph72%29.98 "HgN/A
10:00 am55 °FBroken clouds.3 mph72%30.01 "HgN/A
9:30 am54 °FBroken clouds.2 mph77%29.98 "Hg5 mi
8:30 am52 °FBroken clouds.2 mph82%29.98 "Hg5 mi
8:00 am50 °FBroken clouds.2 mph82%29.98 "Hg5 mi
7:30 am50 °FBroken clouds.2 mph82%30.01 "Hg5 mi
7:00 am48 °FBroken clouds.2 mph87%30.01 "Hg5 mi
6:30 am48 °FBroken clouds.No wind87%29.95 "Hg5 mi
6:00 am48 °FBroken clouds.No wind87%29.98 "Hg5 mi
5:30 am48 °FPartly cloudy.No wind87%29.95 "Hg5 mi
5:00 am48 °FPartly cloudy.No wind87%29.98 "Hg5 mi
4:30 am48 °FPartly cloudy.No wind87%29.95 "Hg5 mi
4:00 am48 °FPartly cloudy.No wind87%29.98 "Hg5 mi
3:30 am48 °FPartly cloudy.2 mph87%29.98 "Hg5 mi
3:00 am48 °FPartly cloudy.2 mph87%29.98 "Hg5 mi
2:00 am48 °FPartly cloudy.2 mph87%30.01 "Hg5 mi
1:00 am48 °FPartly cloudy.2 mph87%30.01 "Hg5 mi
12:30 am48 °FPartly cloudy.6 mph87%30.01 "Hg5 mi
12:00 am48 °FPartly cloudy.6 mph87%30.01 "Hg5 mi
Weather by CustomWeather, © 2017

See weather overviewHow to use our weather pages